Location: Kapuskasing
(49.3803°N, 82.4001°W)
Time: 10:03:59
(UTC-04:00)

RS-44 - Pass Details

Date: 15 March 2026
Orbit: 1175 x 1510 km, 82.5° (Epoch: 11 April)

Event Time Altitude Azimuth Distance (km) Brightness Sun altitude
Rises 02:52:52 0° 351° (N) 4,366 ? -40.1°
Reaches altitude 10° 02:55:49 10° 359° (N) 3,437 ? -39.9°
Maximum altitude 03:03:35 43° 69° (ENE) 1,934 ? -39.4°
Enters shadow 03:06:12 35° 107° (ESE) 2,186 ? -39.2°
